TimeMDT,TemperatureF,Dew PointF,Humidity,Sea Level PressureIn,VisibilityMPH,Wind Direction,Wind SpeedMPH,Gust SpeedMPH,PrecipitationIn,Events,Conditions,WindDirDegrees,DateUTC
12:53 AM,26.1,21.9,84,30.14,10.0,Calm,Calm,-,N/A,,Partly Cloudy,0,2012-10-27 06:53:00
1:53 AM,24.1,21.0,88,30.14,10.0,Calm,Calm,-,N/A,,Mostly Cloudy,0,2012-10-27 07:53:00
2:53 AM,24.1,21.9,91,30.13,10.0,Calm,Calm,-,N/A,,Overcast,0,2012-10-27 08:53:00
3:53 AM,21.9,19.9,92,30.13,10.0,Calm,Calm,-,N/A,,Mostly Cloudy,0,2012-10-27 09:53:00
4:53 AM,23.0,21.0,92,30.13,10.0,Calm,Calm,-,N/A,,Partly Cloudy,0,2012-10-27 10:53:00
5:53 AM,21.0,19.0,92,30.15,10.0,Calm,Calm,-,N/A,,Overcast,0,2012-10-27 11:53:00
6:53 AM,24.1,21.0,88,30.16,10.0,Calm,Calm,-,N/A,,Overcast,0,2012-10-27 12:53:00
7:53 AM,26.1,24.1,92,30.18,10.0,Calm,Calm,-,N/A,,Overcast,0,2012-10-27 13:53:00
8:53 AM,28.9,25.0,85,30.18,10.0,Calm,Calm,-,N/A,,Overcast,0,2012-10-27 14:53:00
9:53 AM,32.0,25.0,75,30.18,10.0,Calm,Calm,-,N/A,,Overcast,0,2012-10-27 15:53:00
10:53 AM,37.9,25.0,60,30.14,10.0,NNE,3.5,-,N/A,,Partly Cloudy,20,2012-10-27 16:53:00
11:53 AM,42.1,19.9,41,30.12,10.0,ENE,3.5,-,N/A,,Overcast,60,2012-10-27 17:53:00
12:53 PM,42.1,18.0,38,30.10,10.0,South,4.6,-,N/A,,Clear,170,2012-10-27 18:53:00
1:53 PM,44.1,18.0,35,30.08,10.0,SW,8.1,-,N/A,,Clear,220,2012-10-27 19:53:00
2:53 PM,45.0,17.1,33,30.06,10.0,SSW,5.8,-,N/A,,Clear,200,2012-10-27 20:53:00
3:53 PM,46.0,17.1,31,30.07,10.0,Variable,3.5,-,N/A,,Mostly Cloudy,0,2012-10-27 21:53:00
4:53 PM,45.0,17.1,33,30.08,10.0,WNW,5.8,-,N/A,,Mostly Cloudy,300,2012-10-27 22:53:00
5:53 PM,39.9,21.9,49,30.12,10.0,NNW,5.8,-,N/A,,Overcast,330,2012-10-27 23:53:00
6:53 PM,37.9,23.0,55,30.13,10.0,NNW,3.5,-,N/A,,Overcast,330,2012-10-28 00:53:00
7:53 PM,30.9,24.1,76,30.15,10.0,SW,3.5,-,N/A,,Overcast,220,2012-10-28 01:53:00
8:53 PM,33.1,26.1,75,30.15,10.0,Calm,Calm,-,N/A,,Overcast,0,2012-10-28 02:53:00
9:53 PM,30.2,26.6,86,30.07,10.0,South,5.8,-,N/A,,Overcast,170,2012-10-28 03:53:00
10:53 PM,33.1,25.0,72,30.12,10.0,South,10.4,-,N/A,,Scattered Clouds,170,2012-10-28 04:53:00
11:53 PM,28.9,23.0,78,30.10,10.0,South,9.2,-,N/A,,Clear,170,2012-10-28 05:53:00